Regional Weather Roundup
Issued by NWS

Home | Current Version | Previous Version | Graphics & Text | Print | Product List | Glossary On
Versions: 1 2 3 4 5 6 7 8 9 10 11 12 13 14 15 16 17 18 19 20 21 22 23 24 25 26 27 28 29 30 31 32 33 34 35 36 37 38 39 40 41 42 43 44 45 46 47 48 49 50
491
ASUS43 KMKX 271521
RWRWI

WISCONSIN REGIONAL WEATHER ROUNDUP
NATIONAL WEATHER SERVICE MILWAUKEE/SULLIVAN WI
900 AM CST MON FEB 27 2017

NOTE: "FAIR" INDICATES FEW OR NO CLOUDS BELOW 12,000 FEET WITH NO
SIGNIFICANT WEATHER AND/OR OBSTRUCTIONS TO VISIBILITY.

WIZ001-002-006>008-014>016-023>028-271600-
NORTHWEST WISCONSIN

CITY           SKY/WX    TMP DP  RH WIND       PRES   REMARKS
SUPERIOR ARPT  LGT SNOW  21  15  77 CALM      29.99S
ASHLAND        FLURRIES  23  18  81 CALM      30.00S
HAYWARD        CLOUDY    25  18  74 S6        29.96S WCI  18
SIREN          SUNNY     27  21  77 S7        29.96R WCI  20
CUMBERLAND     SUNNY     28  21  74 S9        29.96S WCI  20
RICE LAKE      SUNNY     29  21  74 S10       29.99S WCI  19
CHETEK         SUNNY     28  20  72 S6        29.99S WCI  22
LADYSMITH      SUNNY     28  22  78 S7        30.00S WCI  20
EAU CLAIRE     SUNNY     26  20  77 S5        30.01R WCI  20
MENOMONIE      SUNNY     24  21  85 SE5       30.01S WCI  19
NEW RICHMOND   CLOUDY    30  20  64 SW14      29.97S WCI  20
OSCEOLA        PTSUNNY   30  22  72 S7        30.00R WCI  23
$$

WIZ003>005-009-010-017-018-271600-
NORTH CENTRAL WISCONSIN

CITY           SKY/WX    TMP DP  RH WIND       PRES   REMARKS
MANITOWISH WTR CLOUDY    19  15  82 S9        29.97S WCI   9
ARBOR VITAE    CLOUDY    24  16  73 S7          N/A  WCI  15
WOODRUFF       CLOUDY    24  16  73 S7          N/A  WCI  15
RHINELANDER    CLOUDY   N/A N/A N/A S6        30.00S
EAGLE RIVER    CLOUDY    21  12  66 S8        29.99S WCI  12
LAND O LAKES   CLOUDY    19  15  84 S5        30.00F WCI  13
PHILLIPS       MOSUNNY   26  20  77 S9        29.97S WCI  17
TOMAHAWK       CLOUDY    27  20  75 S3        30.00S
MEDFORD        MOSUNNY   25  19  79 S7        30.00S WCI  17
MERRILL        NOT AVBL
$$

WIZ029-030-035-036-043>047-271600-
CENTRAL WISCONSIN

CITY           SKY/WX    TMP DP  RH WIND       PRES   REMARKS
WAUSAU         SUNNY     26  22  84 S8        30.03S WCI  18
MOSINEE        MOSUNNY   25  23  93 S7        30.05R WCI  17
MARSHFIELD     SUNNY     26  20  77 S9        30.02S WCI  17
STEVENS POINT  SUNNY     28  22  77 S9        30.07R WCI  19
WAUPACA        SUNNY     30  25  80 CALM      30.10S
WAUTOMA        SUNNY     34  24  67 CALM      30.10
WISC RAPIDS    SUNNY     29  24  82 VRB5      30.07S WCI  24
CAMP DOUGLAS   SUNNY     28  23  80 SE5       30.07R WCI  23
$$

WIZ011>013-019>022-031-037>040-048>050-271600-
NORTHEAST WISCONSIN

CITY           SKY/WX    TMP DP  RH WIND       PRES   REMARKS
ANTIGO         SUNNY     23  16  77 S12       30.03S WCI  11
SHAWANO        SUNNY     32  22  66 S3        30.10R
OCONTO         SUNNY     28  17  63 S8        30.12R WCI  20
STURGEON BAY   SUNNY     31  21  66 SE12      30.12R WCI  22
GREEN BAY      SUNNY     28  25  88 S8        30.11S WCI  20
MANITOWOC      SUNNY     29  22  75 CALM      30.14R
APPLETON       MOSUNNY   27  19  74 VRB3      30.08S
CLINTONVILLE   SUNNY     28  23  80 S6        30.09S WCI  22
OSHKOSH        SUNNY     29  23  78 S9        30.11R WCI  20
$$

WIZ032>034-041-042-053>061-271600-
SOUTHWEST WISCONSIN

CITY           SKY/WX    TMP DP  RH WIND       PRES   REMARKS
LA CROSSE      SUNNY     31  24  75 S9        30.07R WCI  23
SPARTA         SUNNY     27  24  87 CALM      30.07S
VIROQUA        SUNNY     31  25  78 S8        30.05R WCI  23
BOSCOBEL       SUNNY     31  27  85 N3        30.09S
PRAIRIE DU CHI SUNNY     30  26  85 CALM      30.09R
PLATTEVILLE    MOSUNNY   33  29  86 SE9       30.07S WCI  26
$$

WIZ056-057-062-063-064-067-068-271600-
SOUTH CENTRAL WISCONSIN

CITY           SKY/WX    TMP DP  RH WIND       PRES   REMARKS
REEDSBURG      SUNNY     33  22  63 S5        30.07S WCI  29
BARABOO/DELLS  SUNNY     32  22  66 S9        30.07S WCI  24
LONE ROCK      SUNNY     31  26  82 SE7       30.10S WCI  24
MINERAL POINT  SUNNY     34  30  86 SE9       30.07S WCI  26
MADISON        MOSUNNY   33  24  69 S8        30.10S WCI  26
MIDDLETON      SUNNY     36  27  70 SE5       30.10S WCI  32
WATERTOWN      SUNNY     34  26  72 SE6       30.11S WCI  29
MONROE         PTSUNNY   32  28  86 SE5       30.08S WCI  27
JANESVILLE     MOSUNNY   36  32  87 VRB5      30.11S WCI  32
$$

WIZ051-052-058>065-066-070>072-271600-
SOUTHEAST WISCONSIN

CITY           SKY/WX    TMP DP  RH WIND       PRES   REMARKS
MILWAUKEE      MOSUNNY   36  27  69 SE7       30.15R WCI  30
WAUKESHA       SUNNY     32  25  74 SE7       30.13F WCI  26
MILWAUKEE/TIMM SUNNY     34  21  60 SE7       30.15R WCI  28
RACINE         SUNNY     38  25  59 SE10      30.16S WCI  31
KENOSHA        SUNNY     38  27  64 SE9       30.15R WCI  31
FOND DU LAC    SUNNY     31  22  69 S5        30.11S WCI  26
SHEBOYGAN      SUNNY     30  25  81 S3        30.12F
WEST BEND      SUNNY     32  27  80 S6        30.12S WCI  26
JUNEAU         MOSUNNY   32  25  74 SE12      30.12S WCI  23
$$

LSZ147-162-271600-
LAKE SUPERIOR

STATION/POSITION TIME  TEMP    WIND        PRES    WAVE
                       AIR SEA DIR/SP/G            HT/PER
                 (UTC) (F)     (DEG/KT/KT) (MB)    (FT/S)
DEVILS ISLAND    1500   24     200/  6/  8 1017.2R
PORT WING        1440   24      CALM  /  2 1015.9R
SAXON HARBOR     1430   24     190/  4/  7 1015.9S
$$

LMZ867-665-643>646-271600-
LAKE MICHIGAN

STATION/POSITION TIME  TEMP    WIND        PRES    WAVE
                       AIR SEA DIR/SP/G            HT/PER
                 (UTC) (F)     (DEG/KT/KT) (MB)    (FT/S)
CHAMBERS ISLAND  1440   29     150/  6/  9 1019.3S
NORTHPORT PIER   1504   30     140/ 11/ 14 1020.3
SISTER BAY       1420             CALM       N/A
KEWAUNEE LAKESHO 1454   32     190/  7/  8 1019.7R
SHEBOYGAN LAKESH 1500   33     170/ 12/ 12 1020.9F
PORT WASHINGTON  1440   35     170/  7/  8 1021.7S
MILWAUKEE LAKESH 1500   35     160/  4/  4   N/A
KENOSHA   LAKESH 1500   35     140/  2/  3 1021.3
$$

TC  - TEMPERATURE IN CELSIUS
VSB - VISIBILITY IN STATUTE MILES
WCI - WIND CHILL INDEX
HX  - HEAT INDEX





USA.gov is the U.S. government's official web portal to all federal, state and local government web resources and services.